Year,Month,Day,Hour,Minute,Value (Times are PST for temperature in C)
2011,04,29,00,00,5.80
2011,04,29,00,01,5.80
2011,04,29,00,02,5.80
2011,04,29,00,03,5.80
2011,04,29,00,04,5.80
2011,04,29,00,05,5.80
2011,04,29,00,06,5.80
2011,04,29,00,07,5.80
2011,04,29,00,08,5.80
2011,04,29,00,09,5.80
2011,04,29,00,10,5.80
2011,04,29,00,11,5.80
2011,04,29,00,12,5.80
2011,04,29,00,13,5.80
2011,04,29,00,14,5.70
2011,04,29,00,15,5.70
2011,04,29,00,16,5.70
2011,04,29,00,17,5.70
2011,04,29,00,18,5.70
2011,04,29,00,19,5.70
2011,04,29,00,20,5.70
2011,04,29,00,21,5.70
2011,04,29,00,22,5.70
2011,04,29,00,23,5.70
2011,04,29,00,24,5.70
2011,04,29,00,25,5.70
2011,04,29,00,26,5.70
2011,04,29,00,27,5.70
2011,04,29,00,28,5.70
2011,04,29,00,29,5.70
2011,04,29,00,30,5.70
2011,04,29,00,31,5.70
2011,04,29,00,32,5.70
2011,04,29,00,33,5.70
2011,04,29,00,34,5.60
2011,04,29,00,35,5.70
2011,04,29,00,36,5.70
2011,04,29,00,37,5.60
2011,04,29,00,38,5.60
2011,04,29,00,39,5.60
2011,04,29,00,40,5.60
2011,04,29,00,41,5.60
2011,04,29,00,42,5.60
2011,04,29,00,43,5.60
2011,04,29,00,44,5.60
2011,04,29,00,45,5.60
2011,04,29,00,46,5.60
2011,04,29,00,47,5.60
2011,04,29,00,48,5.60
2011,04,29,00,49,5.60
2011,04,29,00,50,5.60
2011,04,29,00,51,5.50
2011,04,29,00,52,5.50
2011,04,29,00,53,5.50
2011,04,29,00,54,5.50
2011,04,29,00,55,5.50
2011,04,29,00,56,5.50
2011,04,29,00,57,5.40
2011,04,29,00,58,5.40
2011,04,29,00,59,5.40
2011,04,29,01,00,5.40
2011,04,29,01,01,5.40
2011,04,29,01,02,5.40
2011,04,29,01,03,5.40
2011,04,29,01,04,5.30
2011,04,29,01,05,5.30
2011,04,29,01,06,5.30
2011,04,29,01,07,5.30
2011,04,29,01,08,5.30
2011,04,29,01,09,5.30
2011,04,29,01,10,5.30
2011,04,29,01,11,5.30
2011,04,29,01,12,5.30
2011,04,29,01,13,5.30
2011,04,29,01,14,5.30
2011,04,29,01,15,5.30
2011,04,29,01,16,5.30
2011,04,29,01,17,5.30
2011,04,29,01,18,5.30
2011,04,29,01,19,5.30
2011,04,29,01,20,5.20
2011,04,29,01,21,5.20
2011,04,29,01,22,5.20
2011,04,29,01,23,5.20
2011,04,29,01,24,5.20
2011,04,29,01,25,5.20
2011,04,29,01,26,5.10
2011,04,29,01,27,5.10
2011,04,29,01,28,5.10
2011,04,29,01,29,5.10
2011,04,29,01,30,5.10
2011,04,29,01,31,5.10
2011,04,29,01,32,5.10
2011,04,29,01,33,5.10
2011,04,29,01,34,5.10
2011,04,29,01,35,5.10
2011,04,29,01,36,5.10
2011,04,29,01,37,5.10
2011,04,29,01,38,5.10
2011,04,29,01,39,5.10
2011,04,29,01,40,5.10
2011,04,29,01,41,5.00
2011,04,29,01,42,5.00
2011,04,29,01,43,5.00
2011,04,29,01,44,5.00
2011,04,29,01,45,5.00
2011,04,29,01,46,4.90
2011,04,29,01,47,4.90
2011,04,29,01,48,4.90
2011,04,29,01,49,4.90
2011,04,29,01,50,4.90
2011,04,29,01,51,4.90
2011,04,29,01,52,4.90
2011,04,29,01,53,4.90
2011,04,29,01,54,4.90
2011,04,29,01,55,4.80
2011,04,29,01,56,4.80
2011,04,29,01,57,4.80
2011,04,29,01,58,4.80
2011,04,29,01,59,4.80
2011,04,29,02,00,4.80
2011,04,29,02,01,4.80
2011,04,29,02,02,4.80
2011,04,29,02,03,4.80
2011,04,29,02,04,4.80
2011,04,29,02,05,4.80
2011,04,29,02,06,4.80
2011,04,29,02,07,4.80
2011,04,29,02,08,4.80
2011,04,29,02,09,4.80
2011,04,29,02,10,4.80
2011,04,29,02,11,4.80
2011,04,29,02,12,4.80
2011,04,29,02,13,4.80
2011,04,29,02,14,4.80
2011,04,29,02,15,4.80
2011,04,29,02,16,4.80
2011,04,29,02,17,4.80
2011,04,29,02,18,4.80
2011,04,29,02,19,4.80
2011,04,29,02,20,4.80
2011,04,29,02,21,4.80
2011,04,29,02,22,4.80
2011,04,29,02,23,4.80
2011,04,29,02,24,4.80
2011,04,29,02,25,4.80
2011,04,29,02,26,4.70
2011,04,29,02,27,4.70
2011,04,29,02,28,4.70
2011,04,29,02,29,4.70
2011,04,29,02,30,4.70
2011,04,29,02,31,4.70
2011,04,29,02,32,4.70
2011,04,29,02,33,4.70
2011,04,29,02,34,4.70
2011,04,29,02,35,4.70
2011,04,29,02,36,4.70
2011,04,29,02,37,4.70
2011,04,29,02,38,4.70
2011,04,29,02,39,4.70
2011,04,29,02,40,4.60
2011,04,29,02,41,4.60
2011,04,29,02,42,4.60
2011,04,29,02,43,4.60
2011,04,29,02,44,4.60
2011,04,29,02,45,4.60
2011,04,29,02,46,4.60
2011,04,29,02,47,4.60
2011,04,29,02,48,4.60
2011,04,29,02,49,4.50
2011,04,29,02,50,4.50
2011,04,29,02,51,4.50
2011,04,29,02,52,4.50
2011,04,29,02,53,4.50
2011,04,29,02,54,4.50
2011,04,29,02,55,4.50
2011,04,29,02,56,4.50
2011,04,29,02,57,4.50
2011,04,29,02,58,4.40
2011,04,29,02,59,4.50
2011,04,29,03,00,4.40
2011,04,29,03,01,4.40
2011,04,29,03,02,4.40
2011,04,29,03,03,4.40
2011,04,29,03,04,4.40
2011,04,29,03,05,4.50
2011,04,29,03,06,4.50
2011,04,29,03,07,4.50
2011,04,29,03,08,4.50
2011,04,29,03,09,4.50
2011,04,29,03,10,4.50
2011,04,29,03,11,4.50
2011,04,29,03,12,4.50
2011,04,29,03,13,4.50
2011,04,29,03,14,4.50
2011,04,29,03,15,4.50
2011,04,29,03,16,4.50
2011,04,29,03,17,4.50
2011,04,29,03,18,4.50
2011,04,29,03,19,4.50
2011,04,29,03,20,4.50
2011,04,29,03,21,4.50
2011,04,29,03,22,4.50
2011,04,29,03,23,4.40
2011,04,29,03,24,4.40
2011,04,29,03,25,4.40
2011,04,29,03,26,4.40
2011,04,29,03,27,4.40
2011,04,29,03,28,4.40
2011,04,29,03,29,4.40
2011,04,29,03,30,4.40
2011,04,29,03,31,4.40
2011,04,29,03,32,4.40
2011,04,29,03,33,4.30
2011,04,29,03,34,4.30
2011,04,29,03,35,4.30
2011,04,29,03,36,4.30
2011,04,29,03,37,4.30
2011,04,29,03,38,4.30
2011,04,29,03,39,4.30
2011,04,29,03,40,4.30
2011,04,29,03,41,4.30
2011,04,29,03,42,4.30
2011,04,29,03,43,4.30
2011,04,29,03,44,4.30
2011,04,29,03,45,4.30
2011,04,29,03,46,4.30
2011,04,29,03,47,4.30
2011,04,29,03,48,4.30
2011,04,29,03,49,4.20
2011,04,29,03,50,4.20
2011,04,29,03,51,4.20
2011,04,29,03,52,4.20
2011,04,29,03,53,4.20
2011,04,29,03,54,4.20
2011,04,29,03,55,4.20
2011,04,29,03,56,4.10
2011,04,29,03,57,4.10
2011,04,29,03,58,4.10
2011,04,29,03,59,4.10
2011,04,29,04,00,4.10
2011,04,29,04,01,4.10
2011,04,29,04,02,4.10
2011,04,29,04,03,4.10
2011,04,29,04,04,4.10
2011,04,29,04,05,4.10
2011,04,29,04,06,4.10
2011,04,29,04,07,4.10
2011,04,29,04,08,4.10
2011,04,29,04,09,4.10
2011,04,29,04,10,4.10
2011,04,29,04,11,4.10
2011,04,29,04,12,4.00
2011,04,29,04,13,4.00
2011,04,29,04,14,4.00
2011,04,29,04,15,4.00
2011,04,29,04,16,4.00
2011,04,29,04,17,4.00
2011,04,29,04,18,4.00
2011,04,29,04,19,4.00
2011,04,29,04,20,4.00
2011,04,29,04,21,4.00
2011,04,29,04,22,4.00
2011,04,29,04,23,4.00
2011,04,29,04,24,4.00
2011,04,29,04,25,4.00
2011,04,29,04,26,4.00
2011,04,29,04,27,4.00
2011,04,29,04,28,4.00
2011,04,29,04,29,4.00
2011,04,29,04,30,4.00
2011,04,29,04,31,4.00
2011,04,29,04,32,4.10
2011,04,29,04,33,4.10
2011,04,29,04,34,4.00
2011,04,29,04,35,4.00
2011,04,29,04,36,4.00
2011,04,29,04,37,4.00
2011,04,29,04,38,4.00
2011,04,29,04,39,4.00
2011,04,29,04,40,4.00
2011,04,29,04,41,4.00
2011,04,29,04,42,4.10
2011,04,29,04,43,4.10
2011,04,29,04,44,4.10
2011,04,29,04,45,4.10
2011,04,29,04,46,4.00
2011,04,29,04,47,4.00
2011,04,29,04,48,4.00
2011,04,29,04,49,4.00
2011,04,29,04,50,4.00
2011,04,29,04,51,4.00
2011,04,29,04,52,4.00
2011,04,29,04,53,4.00
2011,04,29,04,54,4.00
2011,04,29,04,55,4.00
2011,04,29,04,56,4.00
2011,04,29,04,57,4.00
2011,04,29,04,58,4.00
2011,04,29,04,59,3.90
2011,04,29,05,00,3.90
2011,04,29,05,01,3.80
2011,04,29,05,02,3.80
2011,04,29,05,03,3.80
2011,04,29,05,04,3.70
2011,04,29,05,05,3.70
2011,04,29,05,06,3.70
2011,04,29,05,07,3.70
2011,04,29,05,08,3.70
2011,04,29,05,09,3.70
2011,04,29,05,10,3.70
2011,04,29,05,11,3.70
2011,04,29,05,12,3.70
2011,04,29,05,13,3.70
2011,04,29,05,14,3.70
2011,04,29,05,15,3.70
2011,04,29,05,16,3.70
2011,04,29,05,17,3.70
2011,04,29,05,18,3.70
2011,04,29,05,19,3.70
2011,04,29,05,20,3.70
2011,04,29,05,21,3.70
2011,04,29,05,22,3.70
2011,04,29,05,23,3.70
2011,04,29,05,24,3.70
2011,04,29,05,25,3.70
2011,04,29,05,26,3.70
2011,04,29,05,27,3.80
2011,04,29,05,28,3.80
2011,04,29,05,29,3.80
2011,04,29,05,30,3.80
2011,04,29,05,31,3.80
2011,04,29,05,32,3.80
2011,04,29,05,33,3.80
2011,04,29,05,34,3.80
2011,04,29,05,35,3.80
2011,04,29,05,36,3.70
2011,04,29,05,37,3.80
2011,04,29,05,38,3.80
2011,04,29,05,39,3.80
2011,04,29,05,40,3.80
2011,04,29,05,41,3.80
2011,04,29,05,42,3.70
2011,04,29,05,43,3.70
2011,04,29,05,44,3.70
2011,04,29,05,45,3.70
2011,04,29,05,46,3.70
2011,04,29,05,47,3.70
2011,04,29,05,48,3.70
2011,04,29,05,49,3.70
2011,04,29,05,50,3.70
2011,04,29,05,51,3.60
2011,04,29,05,52,3.60
2011,04,29,05,53,3.60
2011,04,29,05,54,3.60
2011,04,29,05,55,3.60
2011,04,29,05,56,3.60
2011,04,29,05,57,3.60
2011,04,29,05,58,3.60
2011,04,29,05,59,3.50
2011,04,29,06,00,3.50
2011,04,29,06,01,3.50
2011,04,29,06,02,3.50
2011,04,29,06,03,3.50
2011,04,29,06,04,3.60
2011,04,29,06,05,3.60
2011,04,29,06,06,3.60
2011,04,29,06,07,3.60
2011,04,29,06,08,3.50
2011,04,29,06,09,3.50
2011,04,29,06,10,3.50
2011,04,29,06,11,3.50
2011,04,29,06,12,3.50
2011,04,29,06,13,3.40
2011,04,29,06,14,3.40
2011,04,29,06,15,3.30
2011,04,29,06,16,3.20
2011,04,29,06,17,3.20
2011,04,29,06,18,3.10
2011,04,29,06,19,3.10
2011,04,29,06,20,3.10
2011,04,29,06,21,3.10
2011,04,29,06,22,3.10
2011,04,29,06,23,3.10
2011,04,29,06,24,3.10
2011,04,29,06,25,3.20
2011,04,29,06,26,3.20
2011,04,29,06,27,3.20
2011,04,29,06,28,3.20
2011,04,29,06,29,3.20
2011,04,29,06,30,3.20
2011,04,29,06,31,3.20
2011,04,29,06,32,3.30
2011,04,29,06,33,3.30
2011,04,29,06,34,3.30
2011,04,29,06,35,3.30
2011,04,29,06,36,3.30
2011,04,29,06,37,3.30
2011,04,29,06,38,3.30
2011,04,29,06,39,3.40
2011,04,29,06,40,3.40
2011,04,29,06,41,3.40
2011,04,29,06,42,3.40
2011,04,29,06,43,3.40
2011,04,29,06,44,3.50
2011,04,29,06,45,3.50
2011,04,29,06,46,3.50
2011,04,29,06,47,3.50
2011,04,29,06,48,3.50
2011,04,29,06,49,3.60
2011,04,29,06,50,3.60
2011,04,29,06,51,3.60
2011,04,29,06,52,3.60
2011,04,29,06,53,3.70
2011,04,29,06,54,3.70
2011,04,29,06,55,3.70
2011,04,29,06,56,3.70
2011,04,29,06,57,3.80
2011,04,29,06,58,3.80
2011,04,29,06,59,3.80
2011,04,29,07,00,3.90
2011,04,29,07,01,3.90
2011,04,29,07,02,3.90
2011,04,29,07,03,3.90
2011,04,29,07,04,3.90
2011,04,29,07,05,4.00
2011,04,29,07,06,4.00
2011,04,29,07,07,4.00
2011,04,29,07,08,4.00
2011,04,29,07,09,4.00
2011,04,29,07,10,4.10
2011,04,29,07,11,4.10
2011,04,29,07,12,4.10
2011,04,29,07,13,4.10
2011,04,29,07,14,4.10
2011,04,29,07,15,4.20
2011,04,29,07,16,4.20
2011,04,29,07,17,4.20
2011,04,29,07,18,4.20
2011,04,29,07,19,4.20
2011,04,29,07,20,4.20
2011,04,29,07,21,4.20
2011,04,29,07,22,4.20
2011,04,29,07,23,4.30
2011,04,29,07,24,4.30
2011,04,29,07,25,4.30
2011,04,29,07,26,4.30
2011,04,29,07,27,4.30
2011,04,29,07,28,4.30
2011,04,29,07,29,4.30
2011,04,29,07,30,4.30
2011,04,29,07,31,4.30
2011,04,29,07,32,4.30
2011,04,29,07,33,4.40
2011,04,29,07,34,4.40
2011,04,29,07,35,4.40
2011,04,29,07,36,4.40
2011,04,29,07,37,4.40
2011,04,29,07,38,4.50
2011,04,29,07,39,4.50
2011,04,29,07,40,4.50
2011,04,29,07,41,4.60
2011,04,29,07,42,4.60
2011,04,29,07,43,4.60
2011,04,29,07,44,4.60
2011,04,29,07,45,4.70
2011,04,29,07,46,4.70
2011,04,29,07,47,4.80
2011,04,29,07,48,4.80
2011,04,29,07,49,4.90
2011,04,29,07,50,4.90
2011,04,29,07,51,4.90
2011,04,29,07,52,4.90
2011,04,29,07,53,5.00
2011,04,29,07,54,5.00
2011,04,29,07,55,5.10
2011,04,29,07,56,5.10
2011,04,29,07,57,5.10
2011,04,29,07,58,5.10
2011,04,29,07,59,5.10
2011,04,29,08,00,5.20
2011,04,29,08,01,5.20
2011,04,29,08,02,5.30
2011,04,29,08,03,5.30
2011,04,29,08,04,5.30
2011,04,29,08,05,5.40
2011,04,29,08,06,5.40
2011,04,29,08,07,5.40
2011,04,29,08,08,5.40
2011,04,29,08,09,5.40
2011,04,29,08,10,5.40
2011,04,29,08,11,5.40
2011,04,29,08,12,5.50
2011,04,29,08,13,5.50
2011,04,29,08,14,5.50
2011,04,29,08,15,5.60
2011,04,29,08,16,5.60
2011,04,29,08,17,5.70
2011,04,29,08,18,5.70
2011,04,29,08,19,5.70
2011,04,29,08,20,5.80
2011,04,29,08,21,5.80
2011,04,29,08,22,5.90
2011,04,29,08,23,5.90
2011,04,29,08,24,6.00
2011,04,29,08,25,6.00
2011,04,29,08,26,6.10
2011,04,29,08,27,6.10
2011,04,29,08,28,6.10
2011,04,29,08,29,6.20
2011,04,29,08,30,6.20
2011,04,29,08,31,6.30
2011,04,29,08,32,6.30
2011,04,29,08,33,6.30
2011,04,29,08,34,6.30
2011,04,29,08,35,6.30
2011,04,29,08,36,6.30
2011,04,29,08,37,6.30
2011,04,29,08,38,6.30
2011,04,29,08,39,6.40
2011,04,29,08,40,6.40
2011,04,29,08,41,6.50
2011,04,29,08,42,6.50
2011,04,29,08,43,6.50
2011,04,29,08,44,6.50
2011,04,29,08,45,6.60
2011,04,29,08,46,6.60
2011,04,29,08,47,6.70
2011,04,29,08,48,6.70
2011,04,29,08,49,6.70
2011,04,29,08,50,6.70
2011,04,29,08,51,6.80
2011,04,29,08,52,6.80
2011,04,29,08,53,6.70
2011,04,29,08,54,6.70
2011,04,29,08,55,6.70
2011,04,29,08,56,6.80
2011,04,29,08,57,6.80
2011,04,29,08,58,6.80
2011,04,29,08,59,6.90
2011,04,29,09,00,6.90
2011,04,29,09,01,6.90
2011,04,29,09,02,6.90
2011,04,29,09,03,6.90
2011,04,29,09,04,7.00
2011,04,29,09,05,7.10
2011,04,29,09,06,7.20
2011,04,29,09,07,7.30
2011,04,29,09,08,7.30
2011,04,29,09,09,7.40
2011,04,29,09,10,7.40
2011,04,29,09,11,7.50
2011,04,29,09,12,7.60
2011,04,29,09,13,7.60
2011,04,29,09,14,7.60
2011,04,29,09,15,7.70
2011,04,29,09,16,7.80
2011,04,29,09,17,7.80
2011,04,29,09,18,7.80
2011,04,29,09,19,7.80
2011,04,29,09,20,7.90
2011,04,29,09,21,7.80
2011,04,29,09,22,7.80
2011,04,29,09,23,7.80
2011,04,29,09,24,7.80
2011,04,29,09,25,7.90
2011,04,29,09,26,8.00
2011,04,29,09,27,7.90
2011,04,29,09,28,8.00
2011,04,29,09,29,8.00
2011,04,29,09,30,8.10
2011,04,29,09,31,8.10
2011,04,29,09,32,8.10
2011,04,29,09,33,8.20
2011,04,29,09,34,8.30
2011,04,29,09,35,8.40
2011,04,29,09,36,8.50
2011,04,29,09,37,8.60
2011,04,29,09,38,8.60
2011,04,29,09,39,8.60
2011,04,29,09,40,8.70
2011,04,29,09,41,8.70
2011,04,29,09,42,8.70
2011,04,29,09,43,8.70
2011,04,29,09,44,8.70
2011,04,29,09,45,8.80
2011,04,29,09,46,8.90
2011,04,29,09,47,9.00
2011,04,29,09,48,9.00
2011,04,29,09,49,9.10
2011,04,29,09,50,9.10
2011,04,29,09,51,9.20
2011,04,29,09,52,9.20
2011,04,29,09,53,9.20
2011,04,29,09,54,9.20
2011,04,29,09,55,9.30
2011,04,29,09,56,9.30
2011,04,29,09,57,9.30
2011,04,29,09,58,9.30
2011,04,29,09,59,9.30
2011,04,29,10,00,9.30
2011,04,29,10,01,9.30
2011,04,29,10,02,9.40
2011,04,29,10,03,9.60
2011,04,29,10,04,9.70
2011,04,29,10,05,9.80
2011,04,29,10,06,9.90
2011,04,29,10,07,9.90
2011,04,29,10,08,9.90
2011,04,29,10,09,9.90
2011,04,29,10,10,9.90
2011,04,29,10,11,9.90
2011,04,29,10,12,9.70
2011,04,29,10,13,9.60
2011,04,29,10,14,9.60
2011,04,29,10,15,9.60
2011,04,29,10,16,9.50
2011,04,29,10,17,9.50
2011,04,29,10,18,9.50
2011,04,29,10,19,9.40
2011,04,29,10,20,9.30
2011,04,29,10,21,9.30
2011,04,29,10,22,9.20
2011,04,29,10,23,9.30
2011,04,29,10,24,9.20
2011,04,29,10,25,9.20
2011,04,29,10,26,9.10
2011,04,29,10,27,8.90
2011,04,29,10,28,8.90
2011,04,29,10,29,8.90
2011,04,29,10,30,9.00
2011,04,29,10,31,9.00
2011,04,29,10,32,8.90
2011,04,29,10,33,8.90
2011,04,29,10,34,9.00
2011,04,29,10,35,9.00
2011,04,29,10,36,9.00
2011,04,29,10,37,9.10
2011,04,29,10,38,9.10
2011,04,29,10,39,9.10
2011,04,29,10,40,9.10
2011,04,29,10,41,9.00
2011,04,29,10,42,9.00
2011,04,29,10,43,9.10
2011,04,29,10,44,9.10
2011,04,29,10,45,9.00
2011,04,29,10,46,9.00
2011,04,29,10,47,9.00
2011,04,29,10,48,8.90
2011,04,29,10,49,8.80
2011,04,29,10,50,8.70
2011,04,29,10,51,8.70
2011,04,29,10,52,8.70
2011,04,29,10,53,8.70
2011,04,29,10,54,8.80
2011,04,29,10,55,8.90
2011,04,29,10,56,9.00
2011,04,29,10,57,9.10
2011,04,29,10,58,9.20
2011,04,29,10,59,9.30
2011,04,29,11,00,9.30
2011,04,29,11,01,9.20
2011,04,29,11,02,9.20
2011,04,29,11,03,9.20
2011,04,29,11,04,9.20
2011,04,29,11,05,9.20
2011,04,29,11,06,9.10
2011,04,29,11,07,9.00
2011,04,29,11,08,9.00
2011,04,29,11,09,8.90
2011,04,29,11,10,8.90
2011,04,29,11,11,8.90
2011,04,29,11,12,8.90
2011,04,29,11,13,9.00
2011,04,29,11,14,8.90
2011,04,29,11,15,8.80
2011,04,29,11,16,8.90
2011,04,29,11,17,9.00
2011,04,29,11,18,9.00
2011,04,29,11,19,9.00
2011,04,29,11,20,8.90
2011,04,29,11,21,9.00
2011,04,29,11,22,9.10
2011,04,29,11,23,9.30
2011,04,29,11,24,9.40
2011,04,29,11,25,9.50
2011,04,29,11,26,9.50
2011,04,29,11,27,9.50
2011,04,29,11,28,9.40
2011,04,29,11,29,9.50
2011,04,29,11,30,9.60
2011,04,29,11,31,9.70
2011,04,29,11,32,9.60
2011,04,29,11,33,9.50
2011,04,29,11,34,9.50
2011,04,29,11,35,9.40
2011,04,29,11,36,9.40
2011,04,29,11,37,9.40
2011,04,29,11,38,9.40
2011,04,29,11,39,9.30
2011,04,29,11,40,9.30
2011,04,29,11,41,9.30
2011,04,29,11,42,9.30
2011,04,29,11,43,9.30
2011,04,29,11,44,9.30
2011,04,29,11,45,9.50
2011,04,29,11,46,9.60
2011,04,29,11,47,9.60
2011,04,29,11,48,9.60
2011,04,29,11,49,9.80
2011,04,29,11,50,9.90
2011,04,29,11,51,9.90
2011,04,29,11,52,9.80
2011,04,29,11,53,9.70
2011,04,29,11,54,9.70
2011,04,29,11,55,9.60
2011,04,29,11,56,9.60
2011,04,29,11,57,9.60
2011,04,29,11,58,9.70
2011,04,29,11,59,9.80
2011,04,29,12,00,9.70
2011,04,29,12,01,9.70
2011,04,29,12,02,9.70
2011,04,29,12,03,9.70
2011,04,29,12,04,9.70
2011,04,29,12,05,9.70
2011,04,29,12,06,9.70
2011,04,29,12,07,9.80
2011,04,29,12,08,9.80
2011,04,29,12,09,9.70
2011,04,29,12,10,9.70
2011,04,29,12,11,9.70
2011,04,29,12,12,9.60
2011,04,29,12,13,9.70
2011,04,29,12,14,9.80
2011,04,29,12,15,9.90
2011,04,29,12,16,10.00
2011,04,29,12,17,10.10
2011,04,29,12,18,10.10
2011,04,29,12,19,10.00
2011,04,29,12,20,10.00
2011,04,29,12,21,10.00
2011,04,29,12,22,10.00
2011,04,29,12,23,10.00
2011,04,29,12,24,9.90
2011,04,29,12,25,9.90
2011,04,29,12,26,9.90
2011,04,29,12,27,9.90
2011,04,29,12,28,10.00
2011,04,29,12,29,10.00
2011,04,29,12,30,9.90
2011,04,29,12,31,9.90
2011,04,29,12,32,9.80
2011,04,29,12,33,9.80
2011,04,29,12,34,9.70
2011,04,29,12,35,9.80
2011,04,29,12,36,9.80
2011,04,29,12,37,9.70
2011,04,29,12,38,9.60
2011,04,29,12,39,9.50
2011,04,29,12,40,9.40
2011,04,29,12,41,9.50
2011,04,29,12,42,9.50
2011,04,29,12,43,9.50
2011,04,29,12,44,9.50
2011,04,29,12,45,9.60
2011,04,29,12,46,9.60
2011,04,29,12,47,9.70
2011,04,29,12,48,9.70
2011,04,29,12,49,9.60
2011,04,29,12,50,9.60
2011,04,29,12,51,9.60
2011,04,29,12,52,9.70
2011,04,29,12,53,9.60
2011,04,29,12,54,9.60
2011,04,29,12,55,9.50
2011,04,29,12,56,9.40
2011,04,29,12,57,9.40
2011,04,29,12,58,9.40
2011,04,29,12,59,9.50
2011,04,29,13,00,9.60
2011,04,29,13,01,9.70
2011,04,29,13,02,9.70
2011,04,29,13,03,9.70
2011,04,29,13,04,9.60
2011,04,29,13,05,9.60
2011,04,29,13,06,9.50
2011,04,29,13,07,9.50
2011,04,29,13,08,9.50
2011,04,29,13,09,9.60
2011,04,29,13,10,9.60
2011,04,29,13,11,9.50
2011,04,29,13,12,9.50
2011,04,29,13,13,9.60
2011,04,29,13,14,9.60
2011,04,29,13,15,9.60
2011,04,29,13,16,9.70
2011,04,29,13,17,9.60
2011,04,29,13,18,9.60
2011,04,29,13,19,9.60
2011,04,29,13,20,9.60
2011,04,29,13,21,9.60
2011,04,29,13,22,9.70
2011,04,29,13,23,9.70
2011,04,29,13,24,9.80
2011,04,29,13,25,9.80
2011,04,29,13,26,10.00
2011,04,29,13,27,10.00
2011,04,29,13,28,10.00
2011,04,29,13,29,10.00
2011,04,29,13,30,10.00
2011,04,29,13,31,10.10
2011,04,29,13,32,10.00
2011,04,29,13,33,9.90
2011,04,29,13,34,9.80
2011,04,29,13,35,9.80
2011,04,29,13,36,10.00
2011,04,29,13,37,10.00
2011,04,29,13,38,10.10
2011,04,29,13,39,10.20
2011,04,29,13,40,10.20
2011,04,29,13,41,10.20
2011,04,29,13,42,10.10
2011,04,29,13,43,10.10
2011,04,29,13,44,10.00
2011,04,29,13,45,10.20
2011,04,29,13,46,10.30
2011,04,29,13,47,10.50
2011,04,29,13,48,10.50
2011,04,29,13,49,10.40
2011,04,29,13,50,10.50
2011,04,29,13,51,10.50
2011,04,29,13,52,10.60
2011,04,29,13,53,10.60
2011,04,29,13,54,10.60
2011,04,29,13,55,10.60
2011,04,29,13,56,10.50
2011,04,29,13,57,10.40
2011,04,29,13,58,10.40
2011,04,29,13,59,10.30
2011,04,29,14,00,10.20
2011,04,29,14,01,10.10
2011,04,29,14,02,10.10
2011,04,29,14,03,10.10
2011,04,29,14,04,10.10
2011,04,29,14,05,10.10
2011,04,29,14,06,10.20
2011,04,29,14,07,10.30
2011,04,29,14,08,10.30
2011,04,29,14,09,10.30
2011,04,29,14,10,10.30
2011,04,29,14,11,10.20
2011,04,29,14,12,10.20
2011,04,29,14,13,10.30
2011,04,29,14,14,10.30
2011,04,29,14,15,10.30
2011,04,29,14,16,10.30
2011,04,29,14,17,10.30
2011,04,29,14,18,10.30
2011,04,29,14,19,10.30
2011,04,29,14,20,10.30
2011,04,29,14,21,10.40
2011,04,29,14,22,10.40
2011,04,29,14,23,10.40
2011,04,29,14,24,10.40
2011,04,29,14,25,10.40
2011,04,29,14,26,10.40
2011,04,29,14,27,10.50
2011,04,29,14,28,10.60
2011,04,29,14,29,10.80
2011,04,29,14,30,10.90
2011,04,29,14,31,11.00
2011,04,29,14,32,11.10
2011,04,29,14,33,11.10
2011,04,29,14,34,11.20
2011,04,29,14,35,11.20
2011,04,29,14,36,11.10
2011,04,29,14,37,11.00
2011,04,29,14,38,11.00
2011,04,29,14,39,11.10
2011,04,29,14,40,11.20
2011,04,29,14,41,11.20
2011,04,29,14,42,11.10
2011,04,29,14,43,11.10
2011,04,29,14,44,11.10
2011,04,29,14,45,11.00
2011,04,29,14,46,11.00
2011,04,29,14,47,11.00
2011,04,29,14,48,10.80
2011,04,29,14,49,10.70
2011,04,29,14,50,10.50
2011,04,29,14,51,10.40
2011,04,29,14,52,10.30
2011,04,29,14,53,10.30
2011,04,29,14,54,10.40
2011,04,29,14,55,10.40
2011,04,29,14,56,10.40
2011,04,29,14,57,10.30
2011,04,29,14,58,10.30
2011,04,29,14,59,10.30
2011,04,29,15,00,10.40
2011,04,29,15,01,10.40
2011,04,29,15,02,10.40
2011,04,29,15,03,10.40
2011,04,29,15,04,10.40
2011,04,29,15,05,10.50
2011,04,29,15,06,10.60
2011,04,29,15,07,10.60
2011,04,29,15,08,10.70
2011,04,29,15,09,10.80
2011,04,29,15,10,10.80
2011,04,29,15,11,10.80
2011,04,29,15,12,10.80
2011,04,29,15,13,10.80
2011,04,29,15,14,10.70
2011,04,29,15,15,10.80
2011,04,29,15,16,10.80
2011,04,29,15,17,10.90
2011,04,29,15,18,10.90
2011,04,29,15,19,11.00
2011,04,29,15,20,11.00
2011,04,29,15,21,11.10
2011,04,29,15,22,11.00
2011,04,29,15,23,11.00
2011,04,29,15,24,11.00
2011,04,29,15,25,11.10
2011,04,29,15,26,11.20
2011,04,29,15,27,11.30
2011,04,29,15,28,11.40
2011,04,29,15,29,11.30
2011,04,29,15,30,11.20
2011,04,29,15,31,11.20
2011,04,29,15,32,11.20
2011,04,29,15,33,11.20
2011,04,29,15,34,11.10
2011,04,29,15,35,11.10
2011,04,29,15,36,11.10
2011,04,29,15,37,11.10
2011,04,29,15,38,11.10
2011,04,29,15,39,11.10
2011,04,29,15,40,11.20
2011,04,29,15,41,11.20
2011,04,29,15,42,11.20
2011,04,29,15,43,11.10
2011,04,29,15,44,11.00
2011,04,29,15,45,10.90
2011,04,29,15,46,10.80
2011,04,29,15,47,10.80
2011,04,29,15,48,10.80
2011,04,29,15,49,10.90
2011,04,29,15,50,10.90
2011,04,29,15,51,10.80
2011,04,29,15,52,10.80
2011,04,29,15,53,10.90
2011,04,29,15,54,11.10
2011,04,29,15,55,11.10
2011,04,29,15,56,11.10
2011,04,29,15,57,11.10
2011,04,29,15,58,11.10
2011,04,29,15,59,11.00
2011,04,29,16,00,11.00
2011,04,29,16,01,11.00
2011,04,29,16,02,11.00
2011,04,29,16,03,10.90
2011,04,29,16,04,10.90
2011,04,29,16,05,10.90
2011,04,29,16,06,10.90
2011,04,29,16,07,11.00
2011,04,29,16,08,11.20
2011,04,29,16,09,11.20
2011,04,29,16,10,11.10
2011,04,29,16,11,11.00
2011,04,29,16,12,11.00
2011,04,29,16,13,11.00
2011,04,29,16,14,11.10
2011,04,29,16,15,11.10
2011,04,29,16,16,11.10
2011,04,29,16,17,11.10
2011,04,29,16,18,11.10
2011,04,29,16,19,11.10
2011,04,29,16,20,11.10
2011,04,29,16,21,11.20
2011,04,29,16,22,11.10
2011,04,29,16,23,11.10
2011,04,29,16,24,11.00
2011,04,29,16,25,10.90
2011,04,29,16,26,10.90
2011,04,29,16,27,10.90
2011,04,29,16,28,11.00
2011,04,29,16,29,11.00
2011,04,29,16,30,11.10
2011,04,29,16,31,11.20
2011,04,29,16,32,11.10
2011,04,29,16,33,11.10
2011,04,29,16,34,11.20
2011,04,29,16,35,11.20
2011,04,29,16,36,11.20
2011,04,29,16,37,11.20
2011,04,29,16,38,11.10
2011,04,29,16,39,11.10
2011,04,29,16,40,11.00
2011,04,29,16,41,10.90
2011,04,29,16,42,10.80
2011,04,29,16,43,10.70
2011,04,29,16,44,10.70
2011,04,29,16,45,10.60
2011,04,29,16,46,10.60
2011,04,29,16,47,10.60
2011,04,29,16,48,10.60
2011,04,29,16,49,10.60
2011,04,29,16,50,10.60
2011,04,29,16,51,10.60
2011,04,29,16,52,10.60
2011,04,29,16,53,10.60
2011,04,29,16,54,10.70
2011,04,29,16,55,10.70
2011,04,29,16,56,10.70
2011,04,29,16,57,10.60
2011,04,29,16,58,10.50
2011,04,29,16,59,10.50
2011,04,29,17,00,10.40
2011,04,29,17,01,10.30
2011,04,29,17,02,10.30
2011,04,29,17,03,10.20
2011,04,29,17,04,10.20
2011,04,29,17,05,10.20
2011,04,29,17,06,10.20
2011,04,29,17,07,10.20
2011,04,29,17,08,10.20
2011,04,29,17,09,10.20
2011,04,29,17,10,10.20
2011,04,29,17,11,10.30
2011,04,29,17,12,10.30
2011,04,29,17,13,10.30
2011,04,29,17,14,10.40
2011,04,29,17,15,10.40
2011,04,29,17,16,10.40
2011,04,29,17,17,10.40
2011,04,29,17,18,10.40
2011,04,29,17,19,10.40
2011,04,29,17,20,10.50
2011,04,29,17,21,10.50
2011,04,29,17,22,10.60
2011,04,29,17,23,10.60
2011,04,29,17,24,10.60
2011,04,29,17,25,10.70
2011,04,29,17,26,10.70
2011,04,29,17,27,10.80
2011,04,29,17,28,10.90
2011,04,29,17,29,11.00
2011,04,29,17,30,11.10
2011,04,29,17,31,11.10
2011,04,29,17,32,11.10
2011,04,29,17,33,11.00
2011,04,29,17,34,10.90
2011,04,29,17,35,10.80
2011,04,29,17,36,10.80
2011,04,29,17,37,10.70
2011,04,29,17,38,10.70
2011,04,29,17,39,10.70
2011,04,29,17,40,10.70
2011,04,29,17,41,10.70
2011,04,29,17,42,10.60
2011,04,29,17,43,10.60
2011,04,29,17,44,10.60
2011,04,29,17,45,10.50
2011,04,29,17,46,10.40
2011,04,29,17,47,10.40
2011,04,29,17,48,10.40
2011,04,29,17,49,10.40
2011,04,29,17,50,10.40
2011,04,29,17,51,10.40
2011,04,29,17,52,10.30
2011,04,29,17,53,10.30
2011,04,29,17,54,10.30